ARIANE 1 DEB, 25768

Orbit data source: Space-Track

ARIANE 1 DEB, 25768 is space debris in HEO originally from a launch on Mon, 24 Dec 1979 UTC launched from the French Guiana (FRGUI). Debris objects in space refer to the collection of defunct objects orbiting the Earth. Examples of debris include non-operational satellites, rocket bodies, and fragments generated from explosions, collisions, or faulty payload assembly.

Loading next visibility...
Identifier
25768, 1979-104K
Orbit
HEO
Country
Flag of FRFR
Related business
Manufacturer
Unknown
Mission
Spacecraft
Bus & Motor
Unknown
Mass
Unknown
Launch date (UTC)
1979-12-24 (46 years ago)
Launch vehicle
Unknown
Launch site
French Guiana (FRGUI)
Object type
Payload
Rocket body
Debris
Shape & HBR
Unknown shape, 0.2 m
Radar Cross Section
Medium (>0.1 m² and <1 m²)

Expand to show TLE details & history
Last TLE update: 2 days ago

TLE from 2 days ago
0 ARIANE 1 DEB
1 25768U 79104K   26171.46063406 -.00000362  00000-0 -33636-2 0  9991
2 25768  17.6378 194.9787 5195039 111.5686  10.1691  4.81794598244066
Epoch: 2026-06-20T11:03Z
TLE epoch observation values (Epoch: 2026-06-20T11:03:18.782Z)
Latitude
9.37257°
Longitude
-90.60237°
Altitude
1,234.122 km
Speed
8.821 km/s
True Right ascension
22h 55m 36s
True Declination
9° 19' 15"
Sunlit
Object was in daylight at epoch
Visualization orbit readout
Latitude
Unknown
Longitude
Unknown
Altitude
Unknown
Speed
Unknown
Apparent Right ascension
Unknown
Apparent Declination
Unknown
Sunlit
N/A
Visualization observer readout
Local Sidereal Time
23:20:32
Azimuth
Unknown
Elevation
Unknown
Doppler factor
Unknown
Orbital elements
Apogee altitude
16,128.808 km
Perigee altitude
738.988 km
Semi-major axis
14,812.035 km
Eccentricity
0.5195
Inclination
17.6378°
RAAN
194.9787°
Arg. of periapsis
111.5686°
True anomaly
35.9541°
Mean anomaly
10.1691°
Eccentric anomaly
20.68135°
Mean motion
1.20398 °/min
Orbital period
299.01 mins
BSTAR
-0.0033636
Loading maneuver chart data...
Computing Atmospheric mass density...
Loading historical data...
Loading historical data...
Loading historical data...
Loading historical data...
Loading historical data...
Loading historical data...
Loading historical data...

Documentation

Showing up to 5 results
|